Content
SEND FEEDBACK

Daily
Averages
Monthly
Summary
United States of America

ELLSINORE, MISSOURI


Home > North America > United States > Missouri
Elevation: 751 feet     Latitude: 36 56N     Longitude: 090 45W

WEATHER
 
SELECT A DAY
Number of Records: 212,895;   Date Range: 1/1/95 - 12/26/14
 
SHARE

PRINT THIS DATA

[ ← Previous Day ]
WEATHER ALMANAC - JANUARY 7, 2013
[ Next Day → ]
[ °C ]   °F
Weather ElementAverageHighLow
Temperature30.6 °F43 °F (2:53 pm)21.9 °F (6:53 am)
Dewpoint24 °F28.9 °F (3:53 pm)18 °F (6:53 am)
Humidity77.8 %89 % (9:53 pm)56 % (2:53 pm)
Barometer30.36 in30.48 in (8:53 am)30.23 in (11:53 pm)
Wind Speed2.1 mph8.1 mph (10:53 am)
Weather ElementAverage
Visibility7.8 mi
Wind DirectionENE (70 °)

Weather ElementTotal
Precipitation---
Heating Degree Days32.6 (Base 65)
Averaged from 20 records on January 7, 2013
WEATHER CONDITIONS BREAKOUT
WIND DIRECTION BREAKOUT
WEATHER BY HOUR - JANUARY 7, 2013
[ °C ]   °F
Local TimeTemperatureDewpointHumidityBarometerVisibilityWind DirectionWind SpeedGust SpeedPrecipitationEventsConditions
1:53 AM24.1 °F19.9 °F84 %30.43 in10.0 miCalmClear
2:53 AM24.1 °F19.9 °F84 %30.43 in10.0 miNNW (330°)3.5 mphClear
3:53 AM23.0 °F19.0 °F85 %30.43 in10.0 miCalmClear
5:53 AM23.0 °F19.0 °F85 %30.43 in8.0 miCalmClear
6:53 AM21.9 °F18.0 °F85 %30.45 in8.0 miCalmClear
7:53 AM24.1 °F19.9 °F84 %30.47 in7.0 miCalmClear
8:53 AM30.0 °F25.0 °F82 %30.48 in6.0 miCalmHaze
9:53 AM34.0 °F27.0 °F75 %30.48 in5.0 miSSE (160°)5.8 mphHaze
10:53 AM36.0 °F26.1 °F67 %30.45 in8.0 miESE (110°)8.1 mphClear
11:53 AM37.9 °F28.0 °F68 %30.39 in7.0 miVariable4.6 mphClear
1:53 PM42.1 °F28.0 °F58 %30.33 in10.0 miSouth (170°)4.6 mphClear
2:53 PM43.0 °F28.0 °F56 %30.29 in10.0 miSSE (150°)8.1 mphClear
3:53 PM43.0 °F28.9 °F58 %30.30 in10.0 miSSE (150°)4.6 mphClear
5:53 PM34.0 °F25.0 °F70 %30.28 in10.0 miCalmClear
6:53 PM30.9 °F26.1 °F82 %30.28 in9.0 miCalmClear
7:53 PM30.0 °F26.1 °F85 %30.27 in3.0 miCalmClear
8:53 PM28.0 °F24.1 °F85 %30.26 in6.0 miNNW (330°)3.5 mphClear
9:53 PM27.0 °F24.1 °F89 %30.25 in5.0 miCalmClear
10:53 PM27.0 °F24.1 °F89 %30.25 in6.0 miCalmClear
11:53 PM28.0 °F24.1 °F85 %30.23 in7.0 miCalmClear
Hourly data recorded from KPOF, located miles away from Ellsinore, Missouri







STORIES FROM OUR PARTNERS